sat.trackr.live / text

‹ back to catalog

STARLINK-4775

NORAD 53934 · 2022-119BA

PAYLOAD ACTIVE UNKNOWN

§ Identity

Operator
Country
US
Launch date
2022-09-24
Launch site
AFETR
Launch vehicle
Mass (kg)
RCS (m²)

Purposes: comms

External: N2YO · Heavens-Above · Gunter

§ Orbital elements

Epoch: 2026-05-25T04:34:36.240672Z

Period
95.44 min
Inclination
53.2136°
Eccentricity
0.0001260
Mean motion
15.08835429 rev/d
Perigee alt
538.9 km
Apogee alt
540.6 km
Semi-major
6,917.9 km
B*
4.0847e-5
RAAN
315.7424°
Arg perigee
87.9346°
Mean anomaly
272.1791°
Rev number
20,360

§ Raw data

STARLINK-47751 53934U 22119BA  26145.19069723  .00000362  00000+0  40847-4 0  99912 53934  53.2136 315.7424 0001260  87.9346 272.1791 15.08835429203603

JSON: /api/v1/satellites/53934 · /tle

For live sub-satellite position, see the globe view (requires WebGL).

§ Visibility from observer

Set your observer location to see the next 7 days of passes ≥ 10°. The values pass through the URL so the page stays shareable.

No JS? Fill the form by hand. The geolocation button needs JavaScript.